Погода в Балаганске

Погода в Балаганске : погода сейчас, прогноз погоды и архив. Всё, что Вы хотите узнать о погоде в Балаганске!

Хотите узнать прогноз погоды в Балаганске? Тогда Вам сюда: Погода в Балаганске

Поиск расширенной информации на нашем сайте:

Другие новости

Новости СМИ2

Главная страница сайта

Новости сайта

03.07.2017

Напоминаем, что на нашем специализированном сайте Метеоцентр.Азия вы можете получить высокодетализированные автоматические прогнозы погоды по пунктам России, СНГ и мира в авиационном формате (включающие направление и скорость ветра, видимость, явления погоды, количество и форму облачности, нижнюю и верхнюю границу облачности).

Рекомендуем: Кто готов сделать сайт интернет магазина люстры.

Погода в Балаганске - сегодня

Время (UTC), дата Ветер
(°,м/с) 
Видим.   Явления Облачность Т
(°С)
Тd
(°С)
f(%) Тe
(°С)
Pmin
(гПа)
dP
(гПа)
Po
(мм)
O2
(г/м3)
Тmin Tmax R s Состояние
почвы
06 20.07.18 260 (З) 20000 м  слаб. ливневой дождь  10/4 600 м кучево-дожд., средняя 
[Cb cap|Ac As]
+20.1 +17.9 87 +36  997.1  -0.1  712  263           
09 20.07.18 020 (С) 4000 м  ливневой дождь  10/6 600 м кучево-дожд., средняя 
[Cb cap|Ac As]
+18.9 +18.1 95 +35  996.9  -0.4  712  264           
12 20.07.18 320 (СЗ) 10 км  {ливн. осадки}  10/6 600 м кучево-дожд., средняя 
[Cb cap|Ac As]
+18.9 +17.7 93 +35  997.7  0.8  712  264    +23.1     
15 20.07.18 300 (СЗ) н/о  {ливн. осадки}  10/6 600 м кучево-дожд., средняя 
[Cb cap|Ac As]
+15.9 +14.5 91 +25  999.2  0.9  713  268           
18 20.07.18 290 (З) н/о  в посл. час ливневой дождь  10/6 600 м кучево-дожд., средняя 
[Cb cap|Ac As]
+15.3 +14.1 93 +24  999.8  0.4  713  269           
21 20.07.18 290 (З) 10 км  {ливн. осадки}  10/6 600 м кучево-дожд., средняя 
[Cb cap|Ac As]
+15.1 +13.7 91 +23  1000  0.2  713  270           
00 21.07.18 290 (З) 10 км  {ливн. осадки}  10/6 600 м кучево-дожд., средняя 
[Cb cap|Ac As]
+14.8 +12.9 88 +21  1002  1.8  715  271  +14.7      влажная 
06 21.07.18 330 (СЗ) 4000 м  в посл. час ливневой дождь  10/6 600 м кучево-дожд., средняя 
[Cb cap|Ac As]
+16.2 +13.5 84 +23  1004.8  1.9  717  270           
09 21.07.18 340 (С) 4000 м  дымка{ливн. осадки}  10/6 600 м средняя 
[Cu Sc|Ac As]
+19.7 +14.3 71 +29  1005.6  1.3  718  267           
12 21.07.18 350 (С) 4000 м  дым  6/0 верхняя 
[Cs]
+19.1 +12.7 66 +26  1007.3  1.5  719  268    +20  0.6     
15 21.07.18 210 (ЮЗ) н/о    8/3 600 м верхняя 
[Cu hum|Cs]
+14.2 +11.6 84 +19  1009.5  1.3  720  273           
18 21.07.18 310 (СЗ) н/о    6/0 верхняя 
[Cs]
+13.5 +11.9 90 +19  1010.4  0.7  721  274           
21 21.07.18 240 (ЮЗ) н/о    н/о 
+10.9 +10.3 96 +14  1011.2  0.3  721  277           
00 22.07.18 320 (СЗ) 4000 м  дымка  10/0 средняя 
[As op]
+12.6 +10.9 89 +17  1011.7  0.8  721  276  +10.3        влажная 
03 22.07.18 140 (ЮВ) 4000 м  дымка  10/0 средняя, верхняя 
[Ac trans|Cs]
+15.8 +11.6 76 +21  1011.7  -0.3  721  272           
06 22.07.18 300 (СЗ) 10 км  дым  10/0 верхняя 
[Cs]
+19.9 +6.4 41 +21  1009.4  -0.7  721  270           
09 22.07.18 340 (С) 10 км  дым  10/0 верхняя 
[Cs]
+21.9 +4.8 33 +22  1008.1  -1  720  268           
12 22.07.18 070 (В) 10 км  дым  10/0 верхняя 
[Cs]
+20.1 +9.6 51 +22  1007.9  -0.4  720  268    +22       
15 22.07.18 250 (З) н/о    10/0 верхняя 
[Cs]
+14.2 +10.1 76 +17  1008.9  720  274           
18 22.07.18 230 (ЮЗ) н/о    10/0 верхняя 
[Cs]
+11.3 +9.9 91 +14  1009  -0.4  719  276           
21 22.07.18 260 (З) 4000 м  дымка  10/0 верхняя 
[Cs]
+10.3 +9.4 94 +12  1008.5  -0.6  719  277           
00 23.07.18 290 (З) 4000 м  дымка  10/0 верхняя 
[Cs]
+12.8 +11.4 91 +17  1008.4  0.3  719  275  +9.9        сухая 
03 23.07.18 350 (С) 20000 м    10/0 верхняя 
[Cs]
+18.8 +12.1 65 +25  1006.2  -1.1  718  268           
06 23.07.18 120 (ЮВ) 20000 м    10/0 верхняя 
[Cs]
+23.4 +12.5 50 +29  1004.5  -0.8  718  264           
09 23.07.18 010 (С) 4000 м  дым  10/0 верхняя 
[Cs]
+24.5 +13.2 49 +31  1003.2  -1.1  717  262           
Время (UTC), дата Ветер
(°,м/с) 
Видим.   Явления Облачность Т
(°С)
Тd
(°С)
f(%) Тe
(°С)
Pmin
(гПа)
dP
(гПа)
Po
(мм)
O2
(г/м3)
Тmin Tmax R s Состояние
почвы

Для получения пояснительной информации подведите курсор к названию столбца.

ПОГОДА в Балаганске - архив

Всё, что Вы хотите узнать о погоде в Балаганске - удобно и подробно!

Выберите нужную дату (начиная с 1 января 2015* года) и нажмите кнопку "Найти".
Будут отображены архивные сводки погоды по пункту Балаганск, начиная с указанной даты.


Отображать данные в формате CSV (для использования в таблицах Excel)


Внимание! Наш архив погоды предназначен исключительно для личного некоммерческого использования в познавательных целях. Если Вам необходимы официальные справки о состоянии погоды (для производственных, юридических, коммерческих и т.п. целей), обращайтесь в органы Росгидромета.

*Примечание: данная дата относится к архиву по метеостанциям СССР (Россия, СНГ, Балтия).
Архив по метеостанциям Зарубежной Европы и Азии (кроме Китая) хранится 10 дней, по другим регионам земного шара (Китай, Африка, Америка, Австралия, Океания) - 1 день.

Балаганск - район местоположения метеостанции


Название, широта, долгота, высота метеостанции:
Балаганск 54°ш. 103.1°д. 427 м над ур. моря [Российская Федерация]

Дополнительная информация

В oтличие oт бoльшинства пoгoдных сайтoв мы публикуем пoдрoбную метеoинфoрмацию в детальнoм прoфессиoнальнoм фoрмате.

Характеристики температуры и влажнoсти вoздуха измеряются на высoте 2 м в тени вдали oт зданий и деревьев.
Скoрoсть ветра измеряется на высoте 10 м (на урoвне рoста челoвека скoрoсть ветра ниже в 1.5-2 раза). Если метеoстанция нахoдится в гoрoде или в лесу, тo скoрoсть ветра занижена на 2-4 м/с пo сравнению с oткрытым местoм. Скoрoсть ветра над акватoриями крупных рек и oзёр, а также на вершинах хoлмoв на 2-5 м/с выше, чем в oбычных услoвиях.
Атмoсфернoе давление в разных тoчках местнoсти мoжет значительнo oтличаться oт давления на метеoстанции, в зависимoсти oт услoвий рельефа (при пoдъёме на 10 м давление пoнижается примернo на 1 мм рт.ст.).